Location: Dead Woman Crossing
(43.5369°N, 106.3228°W)
Time: 08:58:06
(UTC+00:00)

NANOSAT C BR1 - Pass Details

Date: 05 July 2022
Orbit: 584 x 599 km, 98.0° (Epoch: 09 August)

Event Time Altitude Azimuth Distance (km) Brightness Sun altitude
Rises 08:13:46 0° 29° (NNE) 2,852 ? -22.1°
Reaches altitude 10° 08:16:31 10° 48° (NE) 1,946 ? -21.9°
Maximum altitude 08:19:29 19° 93° (E) 1,467 ? -21.8°
Enters shadow 08:20:59 16° 119° (ESE) 1,601 ? -21.7°
